To NAV CANADA Home Page Login to a new session Search on AWWS site Feedback and Comments Disclaimer Vers la page française équivalente Tips FAQ What's new on the site To the Forecasts and Observations / NOTAM section To "File a Flight Plan" website Publications and other links Update of the User's profile FIC Telephone Numbers My Weather Data Folder Route Weather Data Regional Weather Data Local Weather Data To the Forecasts and Observations / NOTAM section
Request Generated 12/04/2016 at 22:21:05 UTC . Weather information available at that time is displayed.

METAR/TAF

FLIN FLON/MB    (show WxCam)

METAR CYFO 042200Z 22006KT 15SM -SN OVC008 M02/M04 A2957 RMK SC8
SLP032=
METAR CYFO 042100Z 23008KT 15SM -SN OVC009 M02/M04 A2957 RMK SC8
SLP032=
METAR CYFO 042000Z 21010KT 15SM -SN OVC011 M02/M04 A2957 RMK SC8
SLP034=

CYFO - No TAF is issued for this station

Your time UTC time
Weather data provided by Environment Canada and NAV CANADA